TimeMDT,TemperatureF,Dew PointF,Humidity,Sea Level PressureIn,VisibilityMPH,Wind Direction,Wind SpeedMPH,Gust SpeedMPH,PrecipitationIn,Events,Conditions,WindDirDegrees,DateUTC
12:53 AM,66.0,46.9,50,29.79,10.0,NW,13.8,-,N/A,,Clear,320,2013-08-06 06:53:00
1:53 AM,64.0,53.1,67,29.82,10.0,NNW,8.1,-,N/A,,Clear,340,2013-08-06 07:53:00
2:53 AM,61.0,52.0,72,29.83,10.0,NW,6.9,-,N/A,,Clear,310,2013-08-06 08:53:00
3:53 AM,60.1,53.1,78,29.83,10.0,WNW,8.1,-,N/A,,Clear,300,2013-08-06 09:53:00
4:53 AM,59.0,52.0,78,29.86,10.0,NW,6.9,-,N/A,,Clear,320,2013-08-06 10:53:00
5:53 AM,57.0,51.1,81,29.88,10.0,NW,5.8,-,N/A,,Clear,320,2013-08-06 11:53:00
6:53 AM,60.1,52.0,75,29.89,10.0,North,4.6,-,N/A,,Clear,360,2013-08-06 12:53:00
7:53 AM,66.0,53.1,63,29.89,10.0,North,4.6,-,N/A,,Clear,350,2013-08-06 13:53:00
8:53 AM,70.0,53.1,55,29.88,10.0,WNW,3.5,-,N/A,,Clear,300,2013-08-06 14:53:00
9:53 AM,73.9,52.0,46,29.88,10.0,Calm,Calm,-,N/A,,Clear,0,2013-08-06 15:53:00
10:53 AM,77.0,48.0,36,29.87,10.0,Calm,Calm,-,N/A,,Clear,0,2013-08-06 16:53:00
11:53 AM,81.0,46.9,30,29.86,10.0,Variable,6.9,-,N/A,,Clear,0,2013-08-06 17:53:00
12:53 PM,82.9,48.0,29,29.86,10.0,Calm,Calm,-,N/A,,Clear,0,2013-08-06 18:53:00
1:53 PM,86.0,46.0,25,29.85,10.0,Variable,6.9,-,N/A,,Clear,0,2013-08-06 19:53:00
2:53 PM,87.1,46.0,24,29.84,10.0,ENE,11.5,20.7,N/A,,Clear,60,2013-08-06 20:53:00
3:53 PM,88.0,44.1,22,29.83,10.0,North,10.4,-,N/A,,Clear,350,2013-08-06 21:53:00
4:53 PM,87.1,42.1,21,29.83,10.0,Variable,3.5,17.3,N/A,,Clear,0,2013-08-06 22:53:00
5:53 PM,87.1,39.9,19,29.83,10.0,North,9.2,20.7,N/A,,Clear,10,2013-08-06 23:53:00
6:53 PM,82.9,43.0,24,29.85,10.0,NE,19.6,24.2,N/A,,Clear,50,2013-08-07 00:53:00
7:53 PM,78.1,44.1,30,29.88,10.0,ENE,19.6,-,N/A,,Clear,70,2013-08-07 01:53:00
8:53 PM,73.0,46.0,38,29.92,10.0,ENE,13.8,-,N/A,,Clear,60,2013-08-07 02:53:00
9:53 PM,69.1,46.0,44,29.94,10.0,ENE,12.7,-,N/A,,Clear,60,2013-08-07 03:53:00
10:53 PM,66.9,48.0,51,29.95,10.0,ENE,12.7,-,N/A,,Clear,70,2013-08-07 04:53:00
11:53 PM,64.9,48.0,54,29.96,10.0,East,9.2,-,N/A,,Clear,80,2013-08-07 05:53:00